[[{"header":{"parameterUnit":"m.s-1","parameterCategory":1,"la1":30.2991,"la2":30.254,"lo1":-89.0895,"lo2":-89.0444,"dy":0.0017,"dx":0.0017,"nx":28,"ny":28,"refTime":"2023-07-31T03:00:00:Z","depth":0,"parameterNumber":2,"parameterNumberName":"U-component_of_WINDS"},"data":[0,0,0,0,0,0,0,0,0,0,0,0,0,0,0,0,0,0,0,0,0,0,0,0,0,0,0,0,0,0,0,0,0,0,0,0,0,0,0,0,0,0,0,0,0,0,0,0,0,0,0,0,0,0,0,0,0,0,0.1779,0.178,0,0.181,0.1811,0.1811,0.1812,0.1812,0.1812,0.1811,0.1845,0.1846,0.1847,0,0,0,0,0,0,0,0,0,0,0,0,0,0.1723,0.1724,0.1779,0.178,0.178,0.181,0.1811,0.1811,0.1813,0.1812,0.1812,0.1811,0.1844,0.1846,0.1847,0,0,0,0,0,0,0,0,0,0,0,0,0,0.175,0.1725,0.1779,0.1784,0.1785,0.181,0.1811,0.1811,0.1813,0.1812,0.1812,0.1811,0.1844,0.1846,0.1848,0.187,0,0,0.1853,0.1854,0,0,0,0,0,0,0,0,0.1749,0.1752,0.1783,0.1784,0.1785,0.1807,0.1803,0.1831,0.1813,0.1802,0.1811,0.1811,0.1833,0.1836,0.1843,0.1872,0.1873,0.1853,0.1855,0.1855,0.1856,0,0,0,0,0,0,0,0.1747,0.1751,0.1792,0.1784,0.1785,0.1786,0.1789,0.1808,0.182,0.1803,0.1803,0.1807,0.1833,0.1841,0.1843,0.1873,0.1853,0.1855,0.1856,0.1857,0.1924,0.1924,0,0,0,0,0,0,0.1744,0.175,0.1791,0.1792,0.1765,0.1787,0.1791,0.18,0.182,0.1822,0.1807,0.1807,0.1838,0.1841,0.1845,0.1873,0.1855,0.1857,0.1858,0.1923,0.1924,0.1924,0,0,0,0,0,0,0.1743,0.1747,0.1789,0.1771,0.1776,0.1789,0.18,0.1801,0.1809,0.1823,0.1825,0.1813,0.1838,0.1842,0.1864,0.1874,0.1858,0.186,0.1922,0.1923,0.1924,0.193,0,0,0,0,0,0,0.1741,0.1747,0.1755,0.1771,0.1777,0.1807,0.18,0.1802,0.1812,0.1812,0.1829,0.1831,0.1838,0.1861,0.1866,0.1876,0.1861,0.1921,0.1923,0.1924,0.1929,0.1931,0.1933,0,0,0,0,0,0.1739,0.1756,0.1756,0.1761,0.1788,0.1808,0.1812,0.1818,0.1813,0.1821,0.1831,0.1831,0.1872,0.1863,0.1868,0.188,0.1921,0.1922,0.1924,0.1928,0.193,0.1932,0,0,0,0,0,0,0.1741,0.1758,0.1758,0.178,0.1793,0.1808,0.1819,0.182,0.1835,0.1834,0.1842,0.1846,0.1868,0.1876,0.1866,0.1903,0.1896,0.1899,0.1897,0.19,0.1902,0.19,0.1863,0,0,0,0,0,0.1744,0.1758,0.1772,0.1791,0.1797,0.1807,0.1816,0.182,0.1833,0.1839,0.1849,0.1863,0.1879,0.189,0.1905,0.1929,0.1934,0.194,0.1942,0.1943,0.1946,0.1961,0.1964,0.1929,0.1929,0.1929,0,0,0.1751,0.1762,0.177,0.1792,0.1802,0.1817,0.1812,0.1828,0.184,0.1841,0.1863,0.1871,0.1887,0.191,0.1921,0.1918,0.1956,0.1945,0.1946,0.1948,0.1963,0.1966,0.1969,0.193,0.193,0.193,0,0,0.1771,0.178,0.1797,0.1807,0.1822,0.1828,0.1832,0.1848,0.1853,0.1875,0.1877,0.1891,0.1918,0.193,0.1939,0.1964,0.1965,0.1968,0.1979,0.1993,0.1996,0.1999,0.2009,0.2012,0.1971,0.1971,0.1971,0,0.1777,0.18,0.1805,0.1822,0.1832,0.1833,0.1851,0.186,0.188,0.1887,0.1883,0.1918,0.1928,0.1955,0.1961,0.1968,0.1974,0.1967,0.1995,0.1998,0.2,0.201,0.2013,0.1971,0.1971,0.1971,0.1971,0,0.1808,0.1824,0.1835,0.1854,0.1865,0.1882,0.1891,0.1901,0.1904,0.1911,0.1933,0.1946,0.1965,0.1971,0.1974,0.1998,0.1996,0.1993,0.1986,0.2004,0.2013,0.2017,0.1972,0.1972,0.1972,0.1971,0,0,0.1831,0.1852,0.1856,0.1865,0.1882,0.1895,0.1912,0.193,0.1939,0.1952,0.1968,0.1991,0.1989,0.2,0.2004,0.2016,0.2036,0.2012,0.2012,0.2017,0.2065,0.2068,0.2072,0.2036,0.2037,0.2038,0.2065,0,0.1854,0.1884,0.189,0.1917,0.1932,0.1933,0.1948,0.1961,0.1968,0.1983,0.1991,0.2008,0.2003,0.2009,0.2021,0.2031,0.2046,0.2029,0.2052,0.2053,0.205,0.2077,0.208,0.2105,0.2068,0.2069,0.2069,0,0.1885,0.1899,0.1927,0.1942,0.1949,0.1963,0.198,0.1993,0.2008,0.2012,0.2024,0.2027,0.2046,0.2037,0.2064,0.2052,0.2062,0.2068,0.2069,0.2073,0.2063,0.2083,0.2113,0.2117,0.2075,0.2074,0.2074,0,0.1901,0.1927,0.1947,0.1954,0.1972,0.1982,0.199,0.2003,0.2014,0.2029,0.2036,0.2053,0.2063,0.2076,0.2084,0.2077,0.2111,0.2103,0.2117,0.2116,0.2125,0.2124,0.2158,0.2129,0.2129,0.2129,0.2128,0,0.1927,0.1945,0.1955,0.1967,0.1987,0.1993,0.2013,0.2021,0.2033,0.2048,0.205,0.2065,0.2073,0.2089,0.2095,0.2117,0.2121,0.2126,0.2128,0.2127,0.2127,0.2135,0.2134,0.213,0.2129,0.2129,0.2129,0,0.1949,0.1956,0.1978,0.1993,0.1997,0.2012,0.2025,0.2038,0.2044,0.2064,0.2068,0.208,0.2098,0.2107,0.213,0.2134,0.216,0.216,0.2155,0.2156,0.217,0.2169,0.2212,0.2218,0.2183,0.2183,0.2183,0,0.1965,0.1979,0.1995,0.2005,0.2013,0.2029,0.2039,0.2046,0.2057,0.2074,0.2085,0.2104,0.2119,0.2149,0.216,0.2178,0.2179,0.2193,0.2182,0.2181,0.2181,0.2181,0.2183,0.2195,0.2196,0.2196,0.2196,0,0.1995,0.1998,0.2013,0.2029,0.2041,0.2054,0.2067,0.2075,0.2084,0.2096,0.2115,0.2127,0.2151,0.217,0.2188,0.2197,0.2199,0.2199,0.2204,0.2203,0.2201,0.2204,0.2162,0.2198,0.2198,0.2198,0.2198,0.2198,0.2016,0.2028,0.2042,0.2058,0.2068,0.208,0.2094,0.2102,0.2117,0.2137,0.2139,0.216,0.2174,0.22,0.2209,0.2226,0.2223,0.2229,0.2231,0.2233,0.2234,0.2197,0.2229,0.2229,0.2229,0.2229,0.2229,0,0.2047,0.2055,0.207,0.2088,0.2101,0.21,0.2114,0.2126,0.2144,0.2157,0.2171,0.2194,0.2212,0.2224,0.2243,0.2254,0.2255,0.2259,0.2259,0.2261,0.2235,0.223,0.2258,0.2258,0.2258,0.2258,0.2258,0.2258,0.2065,0.2086,0.209,0.2117,0.2125,0.2145,0.2153,0.2165,0.2175,0.22,0.2215,0.2222,0.2235,0.2255,0.2272,0.2275,0.2283,0.2287,0.229,0.2266,0.2263,0.226,0.2256,0.2288,0.2288,0.2315,0.2316,0.2316]},{"header":{"parameterUnit":"m.s-1","parameterCategory":1,"la1":30.2991,"la2":30.254,"lo1":-89.0895,"lo2":-89.0444,"dy":0.0017,"dx":0.0017,"nx":28,"ny":28,"refTime":"2023-07-31T03:00:00:Z","depth":0,"parameterNumber":3,"parameterNumberName":"V-component_of_WINDS"},"data":[0,0,0,0,0,0,0,0,0,0,0,0,0,0,0,0,0,0,0,0,0,0,0,0,0,0,0,0,0,0,0,0,0,0,0,0,0,0,0,0,0,0,0,0,0,0,0,0,0,0,0,0,0,0,0,0,0,0,-1.957,-1.9571,0,-1.9617,-1.9618,-1.9618,-1.9605,-1.9605,-1.9604,-1.9603,-1.965,-1.9652,-1.9654,0,0,0,0,0,0,0,0,0,0,0,0,0,-1.9468,-1.947,-1.957,-1.9571,-1.9572,-1.9617,-1.9618,-1.9619,-1.9606,-1.9604,-1.9603,-1.9602,-1.9649,-1.9651,-1.9654,0,0,0,0,0,0,0,0,0,0,0,0,0,-1.9514,-1.9471,-1.957,-1.9571,-1.9571,-1.9617,-1.9618,-1.9619,-1.9606,-1.9604,-1.9603,-1.9602,-1.9648,-1.9651,-1.9654,-1.9702,0,0,-1.9664,-1.9665,0,0,0,0,0,0,0,0,-1.9511,-1.9517,-1.957,-1.9571,-1.9571,-1.9604,-1.9599,-1.9647,-1.9606,-1.9593,-1.9603,-1.9601,-1.9636,-1.964,-1.9652,-1.9705,-1.9707,-1.9664,-1.9666,-1.9668,-1.9668,0,0,0,0,0,0,0,-1.9508,-1.9515,-1.9589,-1.9571,-1.9572,-1.9568,-1.9573,-1.9608,-1.9621,-1.9594,-1.9593,-1.9599,-1.9636,-1.9648,-1.9653,-1.9707,-1.9664,-1.9667,-1.9669,-1.967,-1.9802,-1.9803,0,0,0,0,0,0,-1.9505,-1.9513,-1.9587,-1.959,-1.9537,-1.9571,-1.9577,-1.9595,-1.9621,-1.9624,-1.96,-1.9598,-1.9644,-1.9649,-1.9654,-1.9712,-1.9668,-1.9671,-1.9672,-1.98,-1.9802,-1.9804,0,0,0,0,0,0,-1.9502,-1.9511,-1.9586,-1.9551,-1.9561,-1.9574,-1.9595,-1.9597,-1.961,-1.9626,-1.9628,-1.9611,-1.9643,-1.965,-1.969,-1.9713,-1.9672,-1.9675,-1.9798,-1.9801,-1.9803,-1.9828,0,0,0,0,0,0,-1.95,-1.9511,-1.9529,-1.9552,-1.9562,-1.9622,-1.9597,-1.9599,-1.9615,-1.9613,-1.9636,-1.9639,-1.9642,-1.9686,-1.9694,-1.9717,-1.9677,-1.9796,-1.9799,-1.9802,-1.9825,-1.9831,-1.9836,0,0,0,0,0,-1.9496,-1.9534,-1.953,-1.9539,-1.9586,-1.9623,-1.9629,-1.9632,-1.9617,-1.9636,-1.9646,-1.9638,-1.971,-1.969,-1.9699,-1.9723,-1.9795,-1.9799,-1.9802,-1.9823,-1.983,-1.9836,0,0,0,0,0,0,-1.9513,-1.9537,-1.9533,-1.958,-1.96,-1.9621,-1.9644,-1.964,-1.9664,-1.9661,-1.9663,-1.9669,-1.9711,-1.9721,-1.9699,-1.9771,-1.975,-1.9756,-1.9763,-1.977,-1.9775,-1.9771,-1.968,0,0,0,0,0,-1.9523,-1.9551,-1.957,-1.9609,-1.962,-1.963,-1.9646,-1.9647,-1.9668,-1.9676,-1.9689,-1.9709,-1.9736,-1.9753,-1.9779,-1.9827,-1.9831,-1.9848,-1.9853,-1.9858,-1.9862,-1.9888,-1.9895,-1.9816,-1.9816,-1.9815,0,0,-1.9542,-1.9559,-1.9576,-1.9613,-1.9629,-1.9657,-1.9637,-1.9669,-1.969,-1.968,-1.972,-1.973,-1.9752,-1.9797,-1.9817,-1.9807,-1.9885,-1.9862,-1.9865,-1.9868,-1.9892,-1.99,-1.9907,-1.9818,-1.9818,-1.9817,0,0,-1.9592,-1.9608,-1.9642,-1.9658,-1.9682,-1.9689,-1.9697,-1.9719,-1.9726,-1.9766,-1.9759,-1.9784,-1.9831,-1.9847,-1.9861,-1.9917,-1.9911,-1.9926,-1.9953,-1.9978,-1.9985,-1.999,-2.001,-2.0017,-1.993,-1.993,-1.993,0,-1.9613,-1.9657,-1.966,-1.9692,-1.9709,-1.9702,-1.9737,-1.9752,-1.9783,-1.9794,-1.9782,-1.984,-1.9855,-1.9903,-1.9917,-1.9929,-1.9938,-1.9923,-1.9983,-1.9989,-1.9994,-2.0013,-2.0021,-1.9932,-1.9932,-1.9931,-1.9931,0,-1.9681,-1.9711,-1.9736,-1.9767,-1.9786,-1.9819,-1.9827,-1.9846,-1.9846,-1.9854,-1.9894,-1.9912,-1.9941,-1.9952,-1.9952,-2.0,-1.9993,-1.9983,-1.9961,-2.0004,-2.0021,-2.0029,-1.9934,-1.9934,-1.9933,-1.9933,0,0,-1.9743,-1.9775,-1.9784,-1.9798,-1.9824,-1.9847,-1.988,-1.9908,-1.9925,-1.9946,-1.9973,-2.0013,-2.0003,-2.0019,-2.0021,-2.0043,-2.0086,-2.003,-2.003,-2.0039,-2.014,-2.0148,-2.0156,-2.0082,-2.0084,-2.0085,-2.0138,0,-1.9794,-1.9853,-1.9857,-1.9909,-1.9937,-1.9932,-1.996,-1.9979,-1.9988,-2.0012,-2.0021,-2.0049,-2.0035,-2.0044,-2.0066,-2.0076,-2.0107,-2.0073,-2.0107,-2.0108,-2.0101,-2.0166,-2.0174,-2.0223,-2.0145,-2.0147,-2.0147,0,-1.9863,-1.9887,-1.9942,-1.9964,-1.9976,-2.0001,-2.0028,-2.0052,-2.0073,-2.0078,-2.0096,-2.0094,-2.0128,-2.0106,-2.0152,-2.0128,-2.0143,-2.015,-2.0152,-2.0155,-2.013,-2.017,-2.0239,-2.0246,-2.0158,-2.0158,-2.0157,0,-1.9901,-1.9948,-1.9987,-1.9999,-2.0025,-2.0044,-2.0055,-2.0075,-2.0092,-2.0116,-2.0127,-2.0153,-2.0168,-2.0189,-2.0194,-2.0178,-2.024,-2.0218,-2.0244,-2.0244,-2.0257,-2.0256,-2.0329,-2.0267,-2.0267,-2.0267,-2.0267,0,-1.9959,-1.9992,-2.0005,-2.0028,-2.0066,-2.0071,-2.0108,-2.0119,-2.0137,-2.0162,-2.0159,-2.0183,-2.0189,-2.0214,-2.0219,-2.0256,-2.0263,-2.0267,-2.0268,-2.0267,-2.0266,-2.0276,-2.0273,-2.0269,-2.0268,-2.0268,-2.0268,0,-2.0008,-2.0018,-2.006,-2.0082,-2.0088,-2.0115,-2.0134,-2.0157,-2.0165,-2.0197,-2.0205,-2.0218,-2.0248,-2.0255,-2.029,-2.0294,-2.0337,-2.0335,-2.033,-2.033,-2.0355,-2.0352,-2.0437,-2.0448,-2.0379,-2.038,-2.038,0,-2.0044,-2.007,-2.0095,-2.0112,-2.0125,-2.0153,-2.017,-2.0176,-2.0194,-2.022,-2.024,-2.0269,-2.0293,-2.034,-2.0352,-2.0379,-2.0377,-2.0405,-2.0381,-2.0379,-2.0377,-2.0375,-2.0378,-2.0409,-2.041,-2.041,-2.0411,0,-2.0106,-2.0109,-2.0135,-2.0162,-2.0184,-2.0205,-2.0226,-2.024,-2.0249,-2.027,-2.03,-2.0318,-2.0355,-2.0383,-2.0411,-2.0422,-2.0418,-2.0418,-2.0426,-2.0425,-2.0421,-2.0423,-2.0342,-2.0416,-2.0416,-2.0415,-2.0415,-2.0415,-2.0149,-2.0172,-2.0193,-2.0222,-2.0238,-2.0258,-2.0281,-2.0292,-2.0318,-2.0348,-2.0349,-2.0382,-2.0403,-2.0439,-2.0452,-2.0478,-2.0469,-2.048,-2.0483,-2.0485,-2.0487,-2.0417,-2.0483,-2.0483,-2.0482,-2.0482,-2.0482,0,-2.021,-2.0224,-2.025,-2.028,-2.0303,-2.0297,-2.032,-2.0339,-2.0368,-2.0388,-2.0411,-2.0446,-2.0474,-2.0489,-2.0517,-2.0534,-2.0533,-2.0541,-2.054,-2.0543,-2.0493,-2.0484,-2.0542,-2.0542,-2.0542,-2.0542,-2.0542,-2.0542,-2.0245,-2.0283,-2.0289,-2.0336,-2.0349,-2.0382,-2.0395,-2.0413,-2.0429,-2.0468,-2.0492,-2.0501,-2.0519,-2.0548,-2.0573,-2.0577,-2.0587,-2.0596,-2.0599,-2.0552,-2.0546,-2.054,-2.0531,-2.0599,-2.0599,-2.0646,-2.0646,-2.0647]}]]